Terug naar catalogus

STARLINK-33710

ActiefCommunicatieVLEO
NORAD 63434·PAYLOAD·🇺🇸 United States

Gelanceerd Apr 4, 2025 vanaf Vandenberg Space Force Base

Loading…

Volgende Passages (komende 24 uur)

TLE

VersSource: CelesTrak SupGP

Epoch: Sep 14, 2026, 21:42 UTC

1 63434C 25069B   26257.90465278 -.00008500  00000+0 -25126-3 0  2575
2 63434  53.1600 334.2110 0001319  86.9625   9.0145 15.34380094    18

Volg STARLINK-33710 in realtime met AllMySat

Download on the App Store